Home   Weather   Anchorage   Past weeks
Flag for USA

Past Weather in Anchorage, Alaska, USA — Yesterday and Last 2 Weeks

Now
75 °F

Partly sunny.


Feels Like: 78 °F
Forecast: 68 / 58 °F
Wind: 5 mph from North

Location: Lake Hood Seaplane

Current Time: Jul 22, 2019 at 5:06:57 pm

Latest Report: Jul 22, 2019 at 3:53 pm


Visibility: 10 mi

Pressure: 30.02 "Hg

Humidity: 47%

Dew Point: 53 °F

Location of AnchorageLocation

Past Weather in Anchorage — Graph

°F

Anchorage Temperature Yesterday

Maximum temperature yesterday: 77 °F (at 5:53 pm)
Minimum temperature yesterday: 59 °F (at 12:53 am)
Average temperature yesterday: 67 °F

High & Low Weather Summary for the Past Weeks

 TemperatureHumidityPressure
High87 °F (Jul 7, 5:53 pm)96% (Jul 11, 9:53 am)30.14 "Hg (Jul 11, 9:53 am)
Low56 °F (Jul 17, 4:53 am)37% (Jul 7, 5:53 pm)29.55 "Hg (Jul 16, 8:53 pm)
Average65 °F70%29.89 "Hg
* Reported Jul 7 3:53 pm — Jul 22 3:53 pm, Anchorage. Weather by CustomWeather, © 2019

Note: Actual official high and low records may vary slightly from our data, if they occured in-between our weather recording intervals... More about our weather records

Advertising

Anchorage Weather History for the Previous 24 Hours

Scroll right to see more
 ConditionsComfort  
Time TempWeatherWind HumidityBarometerVisibility
3:53 pm
Mon, Jul 22
75 °FPartly sunny.5 mph47%30.02 "Hg10 mi
2:53 pm77 °FSunny.7 mph45%30.03 "Hg10 mi
1:53 pm74 °FSunny.7 mph52%30.04 "Hg10 mi
12:53 pm72 °FSunny.3 mph55%30.06 "Hg10 mi
11:53 am70 °FSunny.7 mph61%30.06 "Hg10 mi
10:53 am68 °FSunny.5 mph65%30.06 "Hg10 mi
9:53 am67 °FSunny.3 mph66%30.07 "Hg8 mi
8:53 am66 °FSunny.3 mph65%30.08 "Hg7 mi
7:53 am63 °FSunny.3 mph70%30.08 "Hg7 mi
6:53 am61 °FSunny.No wind78%30.08 "Hg5 mi
5:53 am60 °FSunny.No wind80%30.08 "Hg4 mi
5:05 am60 °FClear.3 mph80%30.09 "Hg2 mi
4:53 am59 °FClear.3 mph84%30.09 "Hg3 mi
3:53 am61 °FClear.6 mph81%30.09 "Hg9 mi
2:53 am62 °FClear.5 mph78%30.09 "Hg10 mi
1:53 am62 °FClear.3 mph78%30.09 "Hg10 mi
12:53 am62 °FClear.3 mph75%30.09 "Hg10 mi
11:53 pm
Sun, Jul 21
64 °FClear.5 mph70%30.08 "Hg10 mi
10:53 pm66 °FSunny.3 mph59%30.07 "Hg10 mi
9:53 pm70 °FSunny.3 mph53%30.06 "Hg10 mi
8:53 pm73 °FSunny.5 mph50%30.06 "Hg10 mi
7:53 pm75 °FSunny.8 mph45%30.06 "Hg10 mi
6:53 pm74 °FSunny.10 mph48%30.06 "Hg10 mi
5:53 pm77 °FSunny.10 mph44%30.07 "Hg10 mi
Weather by CustomWeather, © 2019

See weather overview